Location: Alexandria
(38.8050°N, 77.0470°W)
Time: 22:59:16
(UTC-04:00)

KAITUO 1B - Pass Details

Date: 20 February 2018
Orbit: 498 x 520 km, 97.4° (Epoch: 18 June)

Event Time Altitude Azimuth Distance (km) Brightness Sun altitude
Rises 06:12:56 0° 16° (NNE) 2,610 ? -8.5°
Reaches altitude 10° 06:15:03 10° 20° (NNE) 1,724 ? -8.1°
Maximum altitude 06:18:43 57° 100° (E) 603 ? -7.4°
Drops below altitude 10° 06:22:22 10° 180° (S) 1,723 ? -6.7°
Sets 06:24:29 0° 184° (S) 2,608 ? -6.3°
